Location: St. Louis
(38.6270°N, 90.1994°W)
Time: 10:52:30
(UTC-06:00)

S-56A Canister/Altair - Pass Details

Date: 07 December 2021
Orbit: 634 x 2499 km, 38.9° (Epoch: 26 January)

Event Time Altitude Azimuth Distance (km) Brightness Sun altitude
Rises 01:27:18 0° 271° (W) 5,000 - -64.2°
Reaches altitude 10° 01:31:06 10° 272° (W) 3,708 - -63.6°
Maximum altitude 01:40:05 88° 1° (N) 1,099 - -62.0°
Drops below altitude 10° 01:45:57 10° 93° (E) 2,479 - -61.0°
Sets 01:48:03 0° 94° (E) 3,265 - -60.6°
